Regional Weather Roundup
Issued by NWS State College, PA

Home | Current Version | Previous Version | Text Only | Print | Product List | Glossary On
Versions: 1 2 3 4 5 6 7 8 9 10 11 12 13 14 15 16 17 18 19 20 21 22 23 24 25 26 27 28 29 30 31 32 33 34 35 36 37 38 39 40 41 42 43 44 45 46 47 48 49 50
229
ASUS41 KCTP 180010
RWRCTP

REGIONAL WEATHER ROUNDUP
NATIONAL WEATHER SERVICE STATE COLLEGE PA
700 PM EST FRI NOV 17 2017

Note: "fair" indicates few or no clouds below 12,000 feet with no
significant weather and/or obstructions to visibility.

* = STATION THAT DOES NOT REPORT PRECIPITATION /E.G. RAIN...SNOW...ETC/
    THUNDER OR FOG.

PAZ002>004-007>009-013>016-020>023-029>032-180100-
WESTERN PENNSYLVANIA

CITY           SKY/WX    TMP DP  RH WIND       PRES   REMARKS
ERIE           CLOUDY    38  28  67 SE3       30.02F
MEADVILLE      CLOUDY    36  28  73 VRB6      30.02F
FRANKLIN*      CLOUDY    36  26  67 S7        30.04S
NEW CASTLE     FAIR      38  28  67 CALM      30.05F
BEAVER COUNTY  CLEAR     37  28  70 SE7       30.03F
BUTLER*        CLOUDY    36  26  67 SE3       30.03F
PITTSBURGH INT CLOUDY    39  28  64 SE5       30.03F
PITTSBURGH     CLOUDY    37  26  64 SE5       30.03F
INDIANA*       CLEAR     32  28  86 CALM      30.09F
LATROBE        CLEAR     32  27  80 VRB5      30.05F
WASHINGTON CO* CLOUDY    36  27  69 CALM      30.06F
$$

PAZ004>006-010>012-017>019-024>028-033>037-041-042-045-046-049>053-180100-
CENTRAL PENNSYLVANIA

CITY           SKY/WX    TMP DP  RH WIND       PRES   REMARKS
BRADFORD       CLOUDY    32  26  78 CALM      30.03S
DUBOIS         CLOUDY    33  25  72 SE3       30.03F
CLEARFIELD     CLOUDY    31  26  82 CALM      30.07F
JOHNSTOWN      CLOUDY    36  25  64 S7        30.04F
ALTOONA        CLEAR     38  25  59 S5        30.08F
STATE COLLEGE  CLEAR     36  25  64 CALM      30.10S
WILLIAMSPORT   CLEAR     38  26  62 CALM      30.10F
SELINSGROVE    PTCLDY    34  29  82 CALM      30.12F
FT INDIANTOWN  CLEAR     37  26  64 CALM      30.11F
CAPITAL CITY   CLEAR     38  25  59 SW5       30.12S
HARRISBURG     PTCLDY    37  28  70 CALM      30.12S
YORK           CLEAR     29  27  92 CALM      30.13R
$$

PAZ038>040-043-044-047-048-054-055-060>062-067>071-180100-
EASTERN PENNSYLVANIA

CITY           SKY/WX    TMP DP  RH WIND       PRES   REMARKS
SCRANTON       CLEAR     32  18  56 CALM      30.09F
MOUNT POCONO   CLEAR     31  17  56 NW8G18    30.03S
ALLENTOWN      PTCLDY    37  22  54 SW3       30.10F
QUAKERTOWN*    PTCLDY    32  25  74 CALM      30.11S
READING        PTCLDY    39  26  59 CALM      30.11S
LANCASTER      PTCLDY    41  27  57 W5        30.12S
COATESVILLE    CLEAR     37  25  60 W5        30.13R
POTTSTOWN      PTCLDY    34  23  64 CALM      30.13R
BLUE BELL      PTCLDY    32  27  80 CALM      30.14R
DOYLESTOWN     PTCLDY    38  22  52 CALM      30.10S
WILLOW GROVE   NOT AVBL
NORTH PHILA    PTCLDY    44  22  41 W3        30.13S
PHILADELPHIA   PTCLDY    47  21  35 W7        30.13S
$$




USA.gov is the U.S. government's official web portal to all federal, state and local government web resources and services.